sat.trackr.live / text

‹ back to catalog

STARLINK-33997

NORAD 63928 · 2025-098C

PAYLOAD ACTIVE UNKNOWN

§ Identity

Operator
Country
US
Launch date
2025-05-13
Launch site
AFWTR
Launch vehicle
Mass (kg)
RCS (m²)

Purposes: comms

External: N2YO · Heavens-Above · Gunter

§ Orbital elements

Epoch: 2026-09-20T22:02:05.455680Z

Period
94.09 min
Inclination
70.0005°
Eccentricity
0.0002827
Mean motion
15.30440424 rev/d
Perigee alt
472.6 km
Apogee alt
476.4 km
Semi-major
6,852.6 km
B*
6.4887e-4
RAAN
139.9121°
Arg perigee
268.6403°
Mean anomaly
91.4449°
Rev number
7,587

§ Raw data

STARLINK-339971 63928U 25098C   26263.91811870  .00019073  00000+0  64887-3 0  99912 63928  70.0005 139.9121 0002827 268.6403  91.4449 15.30440424 75871

JSON: /api/v1/satellites/63928 · /tle

For live sub-satellite position, see the globe view (requires WebGL).

§ Visibility from observer

Set your observer location to see the next 7 days of passes ≥ 10°. The values pass through the URL so the page stays shareable.

No JS? Fill the form by hand. The geolocation button needs JavaScript.